Portada
METAR-TAF:

METAR-TAF

Aeroports :

Jesaq, Iran

latitud: 26-38N, longitud: 057-46E, altitud: 3 m

Observació

L'informe es va fer fa 25 minuts, a les 04:00 UTC
Vent 8 kt del Est
Temperatura 29°C
Humitat 74%
Pressió 1012 hPa
Visibilitat: 8000 m

METAR: OIZJ 180400Z 08008KT 8000 NSC 29/24 Q1012

Hora: 07:55 (04:25 UTC)


TAF: manca

Observacions i pronòstics meteorològics de més de 4000 aeroports (METAR i TAF).

Les estacions disponibles són els punts grocs i vermells al mapa.

Posi el ratolí al punt desitjat per veure el nom de l'estació.

Feu clic per veure les observacions i els pronòstics meteorològics.

Per canviar el mapa: feu clic els botons verds amb una creu de color negre per apropar; al botó verd amb un guió per allunyar la imatge; o en les fletxes verdes per a mapes adjacents.


METAR-TAF: